Regional Weather Roundup
Issued by NWS

Home | Current Version | Previous Version | Graphics & Text | Print | Product List | Glossary On
Versions: 1 2 3 4 5 6 7 8 9 10 11 12 13 14 15 16 17 18 19 20 21 22 23 24 25 26 27 28 29 30 31 32 33 34 35 36 37 38 39 40 41 42 43 44 45 46 47 48 49 50
703
ASUS44 KLIX 212310
RWRLA
LOUISIANA WEATHER ROUNDUP
NATIONAL WEATHER SERVICE NEW ORLEANS LA
500 PM CST SUN DEC 21 2014

NOTE: "FAIR" INDICATES FEW OR NO CLOUDS BELOW 12,000 FEET WITH NO
      SIGNIFICANT WEATHER AND/OR OBSTRUCTIONS TO VISIBILITY.
      SKY/WX - SKY CONDITION AND SIGNIFICANT WEATHER.
      TMP - AIR TEMPERATURE.    DP   - DEWPOINT TEMPERATURE.
      RH  - RELATIVE HUMIDITY.  PRES - PRESSURE.
      HX  - HEAT INDEX.         WCI  - WIND CHILL INDEX.

*  THESE STATIONS ARE NOT NWS OR FAA STATIONS AND ARE NOT UNDER
   NWS QUALITY CONTROL.

LAZ040-048-061>063-065-066-069-220000-
SOUTHEAST LOUISIANA

CITY           SKY/WX    TMP DP  RH WIND       PRES   REMARKS
N.O. AUDUBON     N/A     56  53  91 MISG        N/A
N.O. INTL ARPT CLOUDY    56  51  84 E7        30.00F
N.O. LAKEFRONT CLOUDY    57  51  80 E5        30.01S
N.O. DOWNTOWN* CLOUDY    55  48  76 E5        30.01S
SLIDELL        CLOUDY    57  51  80 CALM      29.98F
BATON ROUGE    MOCLDY    58  49  72 CALM      29.98F
BOOTHVILLE     CLOUDY    57  55  93 VRB5      30.00S FOG
BELLE CHASSE   CLOUDY    56  52  86 NE7       30.00S
BOGALUSA*        N/A     60  51  70 SE3       30.02S
GALLIANO*      CLOUDY    58  55  87 MISG      29.99S
NEW ROADS*     FAIR      56  49  77 CALM      29.99F
GONZALES*      FAIR      56  54  92 CALM      29.98F
HAMMOND*       NOT AVBL
HOUMA*         PTCLDY    55  52  88 NE5       29.99F
PORT FOURCHON* MOCLDY    59  55  88 N7        30.04R

$$

LAZ041-044-053-054-220000-
SOUTHWEST LOUISIANA

CITY           SKY/WX    TMP DP  RH WIND       PRES   REMARKS
LAKE CHARLES   CLOUDY    52  48  86 E5        29.98F
LAFAYETTE      CLOUDY    55  50  83 CALM      29.98F
PATTERSON      CLOUDY    55  52  88 NE5       29.99S
SALT POINT       N/A     57  52  83 CALM      29.97F
NEW IBERIA     CLOUDY    55  51  86 N6        29.99F FOG
CHENAULT AIRPK CLOUDY    52  48  87 CALM      29.99F FOG

$$

LAZ027-028-220000-
CENTRAL LOUISIANA

CITY           SKY/WX    TMP DP  RH WIND       PRES   REMARKS
FORT POLK      CLOUDY    52  49  89 S5        29.97S
ALEXANDRIA INT CLEAR     50  47  89 S6        29.99R
ALEXANDRIA     CLEAR     51  47  86 SE3       29.99S

$$

LAZ001-002-220000-
NORTHWEST LOUISIANA

CITY           SKY/WX    TMP DP  RH WIND       PRES   REMARKS
SHREVEPORT     MOCLDY    57  47  69 S3        29.95S
BARKSDALE AFB  NOT AVBL
DTN SHREVEPORT PTCLDY    54  43  66 S5        29.95S

$$

LAZ014-016-220000-
NORTHEAST LOUISIANA

CITY           SKY/WX    TMP DP  RH WIND       PRES   REMARKS
MONROE         CLEAR     57  46  66 SE5       29.98F
TALLULAH       CLEAR     57  48  72 E6        29.98F

$$




USA.gov is the U.S. government's official web portal to all federal, state and local government web resources and services.